Cloud_Cover
100 54 100 100 100 100 99 100 100 100 100 78 100 100 42 50 25 10 4 5 1 0 0 0 0 1 0 0 0 2 80 100 89 86 7 93 97 17 81 100 39 94 5 0 5
100 100 100 100 100 100 100 100 99 89 59 100 100 100 100 100 100 89 100 19 8 3 0 0 0 5 5 0 0 0 23 100 91 82 42 45 100 100 62 79 43 12 72 5 1
51 36 97 100 100 100 100 89 100 100 100 100 100 99 100 100 98 100 46 11 77 9 5 0 0 5 49 1 0 0 0 23 6 83 100 100 100 100 100 100 77 5 5 5 5
75 5 4 7 0 0 0 2 1 82 99 100 99 99 58 4 84 14 5 4 0 0 3 1 0 4 39 52 6 0 5 2 5 12 91 100 59 98 86 100 100 100 18 5 5
39 10 4 17 0 0 0 0 0 2 27 41 68 100 8 1 4 0 0 0 4 2 9 51 3 5 3 58 100 5 24 24 38 84 64 91 100 100 98 100 78 100 99 71 30
1 7 8 0 0 0 0 0 0 3 13 10 28 98 83 33 0 0 0 0 0 4 5 2 0 5 5 49 93 78 51 99 5 60 98 51 93 100 98 96 85 100 100 100 44
14 2 67 0 0 0 0 0 0 0 0 21 97 100 62 0 0 0 0 0 0 0 4 1 0 0 3 0 37 100 16 42 14 5 100 100 100 100 100 100 100 100 100 100 100
49 74 9 3 0 0 4 1 0 0 20 96 100 100 29 0 0 0 0 0 0 0 4 0 0 0 0 0 5 100 100 73 88 39 100 100 100 100 100 100 100 78 89 70 16
0 0 0 0 0 0 0 0 0 0 1 26 84 80 24 0 0 0 0 0 0 0 0 0 0 0 0 0 8 57 100 100 100 100 97 100 100 100 100 100 100 100 81 53 40
0 0 0 0 0 0 0 0 0 0 0 0 4 53 0 0 0 0 0 0 0 0 0 0 0 0 0 32 12 22 82 100 100 100 100 100 100 100 100 100 100 100 100 91 71
0 0 0 0 0 0 10 1 0 0 0 0 0 0 0 0 0 0 0 0 0 0 0 0 0 0 12 0 80 100 19 93 100 100 98 71 100 100 100 100 100 100 100 73 23
0 0 0 0 0 0 0 0 0 2 0 0 0 0 0 6 0 0 5 0 0 0 0 4 2 0 44 96 100 100 100 17 35 96 87 83 100 100 100 100 100 100 100 81 84
0 0 0 1 2 0 0 0 0 0 0 0 2 0 4 68 2 10 97 42 0 0 0 41 3 0 1 7 87 100 67 98 87 43 90 100 100 64 37 64 100 100 100 100 100
0 0 0 0 27 0 0 0 0 0 0 5 34 2 10 100 6 10 99 89 38 0 0 2 2 0 0 2 18 100 32 66 100 100 88 89 100 24 5 82 100 74 36 95 100
0 0 0 0 79 7 3 0 0 2 5 22 90 82 51 100 20 100 100 100 100 97 52 0 0 10 0 0 4 86 86 100 100 100 98 20 9 96 5 5 100 64 5 47 98
1 0 0 0 5 72 6 5 2 2 12 64 66 100 52 99 100 100 100 100 100 100 46 88 54 3 0 3 4 5 36 97 100 100 88 5 5 7 4 5 5 4 1 0 0
16 3 7 0 0 94 56 5 14 4 6 36 60 100 98 30 100 100 100 100 100 100 97 95 97 40 23 0 4 97 46 16 78 61 40 5 0 26 5 5 0 1 0 0 0
80 7 0 0 0 80 100 6 36 5 51 58 76 92 83 100 77 100 100 100 100 100 100 100 100 100 100 92 86 80 100 100 94 67 91 31 0 0 0 0 5 1 0 0 0
100 98 0 0 0 4 100 70 90 5 71 60 100 45 94 93 100 100 100 100 100 100 100 100 100 100 100 100 99 99 100 100 99 60 31 2 2 0 5 0 0 0 0 0 0
94 100 11 0 0 1 92 95 95 5 38 58 85 98 100 100 100 100 100 100 100 100 100 98 100 100 100 100 100 100 100 94 100 70 71 5 3 0 1 1 0 2 2 2 12
100 100 99 4 0 4 56 100 100 5 4 62 66 100 100 100 100 100 100 87 100 94 100 100 100 100 100 100 100 100 100 100 93 48 18 3 0 0 0 0 38 72 15 5 7
100 100 100 7 0 0 3 35 82 14 5 45 13 98 100 100 100 100 100 100 100 100 56 100 73 96 100 100 100 100 100 100 98 99 100 33 0 3 4 45 100 100 92 96 100
100 100 100 100 6 5 3 6 12 71 22 4 5 23 18 44 100 85 92 100 100 100 100 100 100 100 100 100 100 100 100 98 87 17 0 0 9 62 100 100 100 100 100 100 100
98 100 100 100 92 5 5 1 30 94 100 96 1 4 87 85 99 100 100 90 100 87 100 100 100 100 100 68 26 6 6 5 5 5 5 39 100 100 100 100 100 100 100 100 100
100 100 100 100 100 6 5 1 100 81 100 100 4 1 5 57 52 100 100 96 100 100 100 100 100 100 100 100 100 91 60 49 5 5 35 95 100 100 100 100 100 100 84 46 89
100 100 100 100 100 21 5 14 6 100 100 86 94 5 3 14 17 96 100 100 100 100 100 100 100 100 100 100 100 100 100 100 100 100 58 95 100 100 100 93 77 29 67 94 6
100 100 100 100 100 47 5 5 0 100 100 100 96 26 31 5 42 93 99 71 100 100 94 96 100 100 100 100 100 100 100 100 100 100 100 100 94 83 87 89 100 96 61 20 7